• In Belgien
  • Länderverzeichnis
  • Für 7 Tage
  • Wassertemperatur
  • Satellitenkarten
  • Wetterkarte
  • Widgets
  • user-avatar
    Anmelden

    Stündliche Wetter Bouillon

    Heute, 24 September, Montag

    Zeit Temperatur Niederschläge Wind Luftdruck Luftfeuchtigkeit
    00:00 +5°C° 0 mm 2 m/S 733 mmHg 96%
    01:00 +5°C° 0 mm 2 m/S 734 mmHg 96%
    02:00 +5°C° 0 mm 2 m/S 734 mmHg 96%
    03:00 +5°C° 0 mm 1 m/S 735 mmHg 96%
    04:00 +5°C° 0 mm 1 m/S 735 mmHg 95%
    05:00 +5°C° 0 mm 1 m/S 736 mmHg 95%
    06:00 +5°C° 0 mm 1 m/S 736 mmHg 94%
    07:00 +6°C° 0 mm 2 m/S 737 mmHg 87%
    08:00 +8°C° 0 mm 3 m/S 738 mmHg 80%
    09:00 +10°C° 0 mm 3 m/S 738 mmHg 72%
    10:00 +11°C° 0 mm 3 m/S 738 mmHg 66%
    11:00 +12°C° 0 mm 3 m/S 739 mmHg 60%
    12:00 +13°C° 0 mm 3 m/S 739 mmHg 54%
    13:00 +13°C° 0.1 mm 3 m/S 739 mmHg 55%
    14:00 +13°C° 0.1 mm 3 m/S 738 mmHg 57%
    15:00 +13°C° 0.1 mm 4 m/S 738 mmHg 59%
    16:00 +11°C° 0 mm 3 m/S 738 mmHg 66%
    17:00 +9°C° 0 mm 2 m/S 738 mmHg 74%
    18:00 +8°C° 0 mm 2 m/S 738 mmHg 81%
    19:00 +7°C° 0 mm 2 m/S 739 mmHg 84%
    20:00 +6°C° 0 mm 2 m/S 739 mmHg 87%
    21:00 +6°C° 0 mm 2 m/S 739 mmHg 90%
    22:00 +5°C° 0 mm 2 m/S 740 mmHg 90%
    23:00 +5°C° 0 mm 2 m/S 740 mmHg 90%

    Morgen, 25 September, Dienstag

    Zeit Temperatur Niederschläge Wind Luftdruck Luftfeuchtigkeit
    00:00 +4°C° 0 mm 2 m/S 740 mmHg 90%
    01:00 +4°C° 0 mm 2 m/S 739 mmHg 89%
    02:00 +4°C° 0 mm 2 m/S 739 mmHg 89%
    03:00 +3°C° 0 mm 2 m/S 739 mmHg 89%
    04:00 +3°C° 0 mm 2 m/S 739 mmHg 89%
    05:00 +3°C° 0 mm 2 m/S 740 mmHg 88%
    06:00 +3°C° 0 mm 2 m/S 740 mmHg 88%
    07:00 +5°C° 0 mm 2 m/S 740 mmHg 79%
    08:00 +8°C° 0 mm 3 m/S 741 mmHg 69%
    09:00 +10°C° 0 mm 3 m/S 741 mmHg 60%
    10:00 +11°C° 0 mm 3 m/S 741 mmHg 56%
    11:00 +12°C° 0 mm 3 m/S 741 mmHg 52%
    12:00 +13°C° 0 mm 3 m/S 740 mmHg 48%
    13:00 +13°C° 0 mm 3 m/S 740 mmHg 49%
    14:00 +13°C° 0 mm 3 m/S 740 mmHg 49%
    15:00 +14°C° 0 mm 3 m/S 739 mmHg 50%
    16:00 +12°C° 0 mm 3 m/S 739 mmHg 57%
    17:00 +10°C° 0 mm 3 m/S 739 mmHg 64%
    18:00 +8°C° 0 mm 2 m/S 739 mmHg 71%
    19:00 +7°C° 0 mm 2 m/S 739 mmHg 72%
    20:00 +7°C° 0 mm 2 m/S 739 mmHg 73%
    21:00 +6°C° 0 mm 2 m/S 739 mmHg 74%
    22:00 +6°C° 0 mm 2 m/S 739 mmHg 73%
    23:00 +5°C° 0 mm 2 m/S 739 mmHg 73%

    übermorgen, 26 September, Mittwoch

    Zeit Temperatur Niederschläge Wind Luftdruck Luftfeuchtigkeit
    00:00 +5°C° 0 mm 2 m/S 738 mmHg 73%
    01:00 +5°C° 0 mm 2 m/S 738 mmHg 72%
    02:00 +4°C° 0 mm 2 m/S 738 mmHg 72%
    03:00 +4°C° 0 mm 2 m/S 738 mmHg 71%
    04:00 +4°C° 0 mm 2 m/S 738 mmHg 71%
    05:00 +4°C° 0 mm 2 m/S 738 mmHg 70%
    06:00 +4°C° 0 mm 2 m/S 738 mmHg 70%
    07:00 +6°C° 0 mm 2 m/S 738 mmHg 63%
    08:00 +9°C° 0 mm 2 m/S 738 mmHg 56%
    09:00 +13°C° 0 mm 2 m/S 739 mmHg 49%
    10:00 +14°C° 0 mm 2 m/S 739 mmHg 45%
    11:00 +16°C° 0 mm 1 m/S 738 mmHg 41%
    12:00 +18°C° 0 mm 1 m/S 738 mmHg 38%
    13:00 +19°C° 0 mm 1 m/S 738 mmHg 38%
    14:00 +19°C° 0 mm 1 m/S 738 mmHg 39%
    15:00 +17°C° 0 mm 0 m/S 737 mmHg 40%
    16:00 +16°C° 0 mm 1 m/S 737 mmHg 46%
    17:00 +13°C° 0 mm 1 m/S 737 mmHg 53%
    18:00 +11°C° 0 mm 1 m/S 736 mmHg 59%
    19:00 +10°C° 0 mm 1 m/S 737 mmHg 61%
    20:00 +10°C° 0 mm 1 m/S 737 mmHg 62%
    21:00 +9°C° 0 mm 1 m/S 737 mmHg 64%
    22:00 +9°C° 0 mm 1 m/S 737 mmHg 64%
    23:00 +9°C° 0 mm 1 m/S 736 mmHg 65%

    27 September, Donnerstag

    Zeit Temperatur Niederschläge Wind Luftdruck Luftfeuchtigkeit
    00:00 +8°C° 0 mm 1 m/S 736 mmHg 65%
    01:00 +8°C° 0 mm 1 m/S 736 mmHg 65%
    02:00 +8°C° 0 mm 1 m/S 736 mmHg 65%
    03:00 +8°C° 0 mm 1 m/S 735 mmHg 66%
    04:00 +7°C° 0 mm 1 m/S 735 mmHg 66%
    05:00 +7°C° 0 mm 1 m/S 735 mmHg 66%
    06:00 +7°C° 0 mm 1 m/S 735 mmHg 67%
    07:00 +10°C° 0 mm 1 m/S 735 mmHg 62%
    08:00 +12°C° 0 mm 1 m/S 735 mmHg 57%
    09:00 +15°C° 0 mm 2 m/S 735 mmHg 52%
    10:00 +16°C° 0 mm 2 m/S 735 mmHg 50%
    11:00 +18°C° 0 mm 2 m/S 735 mmHg 47%
    12:00 +19°C° 0 mm 2 m/S 734 mmHg 45%
    13:00 +20°C° 0 mm 2 m/S 734 mmHg 46%
    14:00 +20°C° 0 mm 2 m/S 733 mmHg 47%
    15:00 +20°C° 0 mm 2 m/S 733 mmHg 47%
    16:00 +18°C° 0 mm 1 m/S 733 mmHg 55%
    17:00 +15°C° 0 mm 1 m/S 732 mmHg 63%
    18:00 +12°C° 0 mm 1 m/S 732 mmHg 71%
    19:00 +11°C° 0 mm 0 m/S 732 mmHg 71%
    20:00 +10°C° 0 mm 0 m/S 732 mmHg 72%
    21:00 +9°C° 0 mm 0 m/S 732 mmHg 73%
    22:00 +9°C° 0 mm 0 m/S 731 mmHg 73%
    23:00 +9°C° 0 mm 0 m/S 731 mmHg 73%

    28 September, Freitag

    Zeit Temperatur Niederschläge Wind Luftdruck Luftfeuchtigkeit
    00:00 +8°C° 0 mm 0 m/S 731 mmHg 74%
    01:00 +8°C° 0 mm 0 m/S 731 mmHg 74%
    02:00 +8°C° 0 mm 0 m/S 730 mmHg 74%
    03:00 +7°C° 0 mm 0 m/S 730 mmHg 75%
    04:00 +8°C° 0 mm 1 m/S 730 mmHg 75%
    05:00 +8°C° 0 mm 1 m/S 730 mmHg 76%
    06:00 +8°C° 0 mm 1 m/S 730 mmHg 76%
    07:00 +10°C° 0 mm 1 m/S 730 mmHg 69%
    08:00 +13°C° 0 mm 1 m/S 731 mmHg 62%
    09:00 +15°C° 0 mm 1 m/S 731 mmHg 55%
    10:00 +17°C° 0 mm 2 m/S 731 mmHg 52%
    11:00 +18°C° 0 mm 2 m/S 731 mmHg 49%
    12:00 +19°C° 0 mm 2 m/S 731 mmHg 46%
    13:00 +19°C° 0 mm 3 m/S 731 mmHg 49%
    14:00 +19°C° 0 mm 3 m/S 730 mmHg 51%
    15:00 +19°C° 0 mm 4 m/S 730 mmHg 54%
    16:00 +17°C° 0 mm 4 m/S 730 mmHg 63%
    17:00 +14°C° 0 mm 4 m/S 730 mmHg 71%
    18:00 +12°C° 0 mm 4 m/S 730 mmHg 80%
    19:00 +11°C° 0 mm 4 m/S 731 mmHg 82%
    20:00 +10°C° 0 mm 4 m/S 731 mmHg 85%
    21:00 +10°C° 0 mm 4 m/S 732 mmHg 87%
    22:00 +8°C° 0 mm 4 m/S 732 mmHg 87%
    23:00 +8°C° 0 mm 4 m/S 732 mmHg 87%

    29 September, Samstag

    Zeit Temperatur Niederschläge Wind Luftdruck Luftfeuchtigkeit
    00:00 +7°C° 0 mm 4 m/S 732 mmHg 87%
    01:00 +7°C° 0 mm 4 m/S 732 mmHg 85%
    02:00 +6°C° 0 mm 4 m/S 732 mmHg 84%
    03:00 +6°C° 0 mm 4 m/S 732 mmHg 83%
    04:00 +6°C° 0 mm 4 m/S 732 mmHg 82%
    05:00 +5°C° 0 mm 4 m/S 732 mmHg 82%
    06:00 +5°C° 0 mm 4 m/S 732 mmHg 82%
    07:00 +7°C° 0 mm 4 m/S 732 mmHg 76%
    08:00 +9°C° 0 mm 5 m/S 732 mmHg 71%
    09:00 +12°C° 0 mm 5 m/S 732 mmHg 65%
    10:00 +13°C° 0 mm 5 m/S 732 mmHg 62%
    11:00 +14°C° 0 mm 5 m/S 731 mmHg 59%
    12:00 +16°C° 0 mm 5 m/S 731 mmHg 56%
    13:00 +16°C° 0 mm 5 m/S 731 mmHg 56%
    14:00 +16°C° 0 mm 5 m/S 730 mmHg 56%
    15:00 +17°C° 0 mm 4 m/S 730 mmHg 56%
    16:00 +14°C° 0 mm 4 m/S 729 mmHg 61%
    17:00 +12°C° 0 mm 3 m/S 729 mmHg 66%
    18:00 +11°C° 0 mm 3 m/S 729 mmHg 71%
    19:00 +10°C° 0 mm 3 m/S 729 mmHg 70%
    20:00 +9°C° 0 mm 3 m/S 728 mmHg 68%
    21:00 +9°C° 0 mm 3 m/S 728 mmHg 66%
    22:00 +9°C° 0 mm 3 m/S 728 mmHg 68%
    23:00 +8°C° 0 mm 3 m/S 728 mmHg 70%
    Mehr zeigen